TimeCST,TemperatureF,Dew PointF,Humidity,Sea Level PressureIn,VisibilityMPH,Wind Direction,Wind SpeedMPH,Gust SpeedMPH,PrecipitationIn,Events,Conditions,WindDirDegrees,DateUTC
12:53 AM,21.0,12.0,68,30.44,10.0,Calm,Calm,-,N/A,,Partly Cloudy,0,2013-01-15 06:53:00
1:53 AM,18.0,12.9,81,30.42,10.0,Calm,Calm,-,N/A,,Partly Cloudy,0,2013-01-15 07:53:00
3:53 AM,14.0,9.0,80,30.39,10.0,Calm,Calm,-,N/A,,Scattered Clouds,0,2013-01-15 09:53:00
4:53 AM,16.0,10.9,81,30.40,10.0,Calm,Calm,-,N/A,,Overcast,0,2013-01-15 10:53:00
5:53 AM,15.1,10.0,80,30.41,10.0,Calm,Calm,-,N/A,,Partly Cloudy,0,2013-01-15 11:53:00
6:53 AM,12.9,10.0,88,30.42,10.0,Calm,Calm,-,N/A,,Overcast,0,2013-01-15 12:53:00
7:53 AM,12.9,10.0,88,30.43,10.0,Calm,Calm,-,N/A,,Clear,0,2013-01-15 13:53:00
8:53 AM,17.1,12.0,81,30.42,10.0,Calm,Calm,-,N/A,,Scattered Clouds,0,2013-01-15 14:53:00
9:53 AM,21.9,14.0,72,30.40,10.0,Calm,Calm,-,N/A,,Clear,0,2013-01-15 15:53:00
10:53 AM,25.0,12.9,60,30.40,10.0,South,4.6,-,N/A,,Clear,180,2013-01-15 16:53:00
11:53 AM,28.0,8.1,43,30.36,10.0,SW,4.6,-,N/A,,Clear,230,2013-01-15 17:53:00
12:53 PM,30.0,8.1,40,30.33,10.0,SW,4.6,-,N/A,,Clear,230,2013-01-15 18:53:00
1:53 PM,30.9,8.1,38,30.30,10.0,Calm,Calm,-,N/A,,Clear,0,2013-01-15 19:53:00
2:53 PM,32.0,8.1,37,30.30,10.0,Calm,Calm,-,N/A,,Clear,0,2013-01-15 20:53:00
3:53 PM,32.0,9.0,38,30.29,10.0,Variable,5.8,-,N/A,,Clear,0,2013-01-15 21:53:00
4:53 PM,30.9,12.0,46,30.28,10.0,SW,3.5,-,N/A,,Clear,220,2013-01-15 22:53:00
5:53 PM,27.0,12.0,53,30.27,10.0,SSW,3.5,-,N/A,,Clear,200,2013-01-15 23:53:00
6:53 PM,25.0,14.0,63,30.27,10.0,SSE,3.5,-,N/A,,Clear,160,2013-01-16 00:53:00
7:53 PM,21.9,12.9,68,30.26,10.0,Calm,Calm,-,N/A,,Clear,0,2013-01-16 01:53:00
8:53 PM,19.9,14.0,78,30.24,10.0,SSW,4.6,-,N/A,,Clear,200,2013-01-16 02:53:00
9:53 PM,21.9,12.9,68,30.21,10.0,SSW,3.5,-,N/A,,Clear,210,2013-01-16 03:53:00
10:53 PM,21.0,12.0,68,30.21,10.0,South,3.5,-,N/A,,Clear,170,2013-01-16 04:53:00
11:53 PM,19.0,10.9,71,30.19,10.0,SSW,5.8,-,N/A,,Clear,200,2013-01-16 05:53:00